Wind_Speed
87 87 86 86 86 86 86 86 86 86 86 86 86 86 87 87 87 87 86 86 86 86 86 86 86 86 86 86 86 86 85 85 85 85 85 85 85 85 85 85 85 85 85 85 84 84 84 84 84 84 84 84 84 83 83 83 83 83 82 82 82 82 81 81 81 81 81 80 80 80 80 80 79 79 79 79 79 79 79 78 78 78 78 78 79 79
86 86 86 86 86 86 86 86 85 86 86 86 86 86 86 86 86 86 86 86 86 86 86 86 86 86 86 86 86 86 86 86 86 86 85 86 85 85 85 85 85 85 85 85 85 85 85 85 85 85 84 84 84 84 84 83 83 83 82 82 82 82 81 81 81 81 80 80 80 79 79 79 79 79 78 78 78 78 78 78 77 78 78 78 78 78
86 86 86 86 86 86 86 85 85 85 85 86 86 86 86 86 86 85 85 85 85 85 85 85 85 85 85 86 86 86 86 86 86 86 86 86 86 86 86 86 86 86 86 86 85 85 85 85 85 85 85 85 85 84 84 84 83 83 83 82 82 82 81 81 81 81 80 80 80 79 79 79 79 79 78 78 78 78 77 77 77 77 77 77 78 78
85 85 85 85 85 85 85 85 85 85 85 85 85 85 85 85 85 85 85 85 85 84 84 85 85 85 85 85 86 86 86 86 86 86 86 86 86 86 86 86 86 86 86 86 86 86 86 86 86 86 86 85 85 85 84 84 84 83 83 83 82 82 82 81 81 81 81 80 80 80 79 79 79 78 78 78 78 77 77 77 77 77 77 77 77 77
84 85 85 85 85 85 85 85 85 85 85 85 85 85 85 85 85 85 84 84 84 84 84 84 84 85 85 85 85 86 86 86 86 86 86 86 86 87 87 87 87 87 87 87 87 87 87 87 86 86 86 86 85 85 85 84 84 84 83 83 83 82 82 82 81 81 81 80 80 80 80 79 79 79 79 78 78 78 77 77 77 77 77 77 77 77
84 84 84 84 84 84 84 84 84 85 85 85 85 85 85 85 84 84 84 84 84 84 84 84 84 84 85 85 85 86 86 86 86 86 86 87 87 87 87 87 87 87 87 87 87 87 87 87 87 87 87 86 86 86 85 85 85 84 84 83 83 83 82 82 82 81 81 81 80 80 80 79 79 79 79 78 78 78 78 78 77 77 77 77 77 77
83 83 83 84 84 84 84 84 84 84 84 84 85 84 84 84 84 84 84 84 84 84 84 84 84 84 85 85 85 86 86 86 86 86 87 87 87 87 88 88 88 88 88 88 88 88 88 88 87 87 87 87 87 86 86 85 85 84 84 84 83 83 82 82 82 81 81 81 81 80 80 80 80 79 79 79 79 79 78 78 78 78 78 77 77 77
82 83 83 83 83 83 83 84 84 84 84 84 84 84 84 84 84 84 84 84 84 84 84 84 84 85 85 85 86 86 86 86 87 87 87 87 88 88 88 88 88 88 88 88 88 88 88 88 88 88 88 87 87 87 86 86 85 85 84 84 83 83 82 82 82 81 81 81 81 80 80 80 80 80 79 79 79 79 79 78 78 78 78 78 78 77
81 82 82 82 83 83 83 83 83 83 83 84 84 84 84 84 84 84 84 84 84 84 84 84 84 85 85 85 86 86 86 87 87 87 87 88 88 88 89 89 89 89 89 89 89 89 89 89 88 88 88 88 87 87 86 86 85 85 84 84 83 83 82 82 82 81 81 81 81 80 80 80 80 80 80 80 79 79 79 79 79 78 78 78 78 78
81 81 81 82 82 82 82 82 83 83 83 83 83 83 83 84 84 84 84 84 84 84 84 84 85 85 85 86 86 86 87 87 87 87 88 88 88 89 89 89 89 89 89 89 89 89 89 89 89 89 88 88 88 87 87 86 85 85 84 84 83 83 82 82 82 81 81 81 81 81 81 80 80 80 80 80 80 79 79 79 79 79 78 78 78 78
80 80 80 81 81 81 81 81 82 82 82 82 83 83 83 83 83 84 84 84 84 84 84 84 85 85 85 86 86 86 87 87 87 88 88 88 89 89 90 90 90 90 90 90 90 90 90 90 89 89 89 89 88 88 87 86 85 85 84 83 83 82 82 82 82 81 81 81 81 81 81 81 81 81 81 80 80 80 79 79 79 79 78 78 78 78
79 79 79 80 80 80 80 81 81 81 81 82 82 82 83 83 83 83 84 84 84 84 84 84 84 85 85 86 86 87 87 87 88 88 88 89 89 90 90 90 91 91 91 91 91 91 91 90 90 90 89 89 89 88 87 87 86 85 85 84 83 82 82 82 82 82 81 82 82 81 82 81 81 81 81 81 81 80 80 79 79 78 78 78 78 78
77 78 78 78 79 79 80 80 80 80 81 81 81 82 82 83 83 83 83 84 84 84 84 84 84 84 85 86 86 87 87 88 88 88 89 89 89 90 90 91 91 91 91 91 91 91 91 91 91 90 90 90 89 88 88 87 86 86 85 84 84 83 82 82 82 82 82 82 82 82 82 82 82 81 81 81 81 80 80 80 79 79 78 78 77 77
76 76 77 77 78 78 79 79 79 80 80 80 81 81 81 82 82 82 83 83 83 84 84 84 84 84 85 85 86 87 87 88 88 89 89 89 90 90 91 91 92 92 92 92 92 92 92 92 91 91 90 90 89 88 88 87 86 86 85 84 84 83 83 82 82 82 82 82 82 82 82 82 82 82 81 81 80 80 80 79 79 79 78 78 77 77
75 75 76 76 77 77 77 78 78 79 79 79 80 80 80 81 81 81 82 82 83 83 83 84 84 84 85 85 85 86 87 88 89 89 90 90 90 91 91 92 92 93 93 93 93 93 92 92 92 91 91 90 89 89 88 87 86 85 85 84 83 83 82 82 81 81 81 81 81 81 82 82 82 82 82 81 81 80 79 79 78 78 78 78 77 77
73 74 74 75 75 76 76 77 77 77 78 78 78 79 79 80 80 81 81 82 82 82 83 83 84 84 84 85 85 86 86 87 88 89 90 91 91 91 92 92 93 93 93 94 94 93 93 93 92 92 91 90 90 89 88 87 86 85 85 84 83 82 82 81 81 80 80 80 80 80 81 81 81 82 82 82 81 81 80 79 78 77 77 77 76 76
72 72 73 74 74 75 75 75 76 76 76 77 77 78 78 79 79 80 80 81 81 82 82 83 83 84 84 85 85 85 86 87 88 89 90 91 91 91 92 93 93 94 94 94 94 94 94 93 93 92 91 91 90 89 88 88 87 86 85 84 83 83 82 81 81 80 80 79 79 79 80 80 80 81 81 81 81 81 81 80 79 78 77 76 75 75
71 71 72 72 72 73 74 74 74 75 75 75 76 76 77 77 78 79 79 80 80 81 82 82 83 84 84 85 85 85 86 86 87 89 90 91 91 92 92 93 94 94 95 95 95 95 94 94 93 93 92 91 90 90 89 88 87 86 85 84 84 83 82 81 81 80 80 79 79 79 79 79 79 80 80 80 81 81 81 81 80 79 77 76 75 74
69 70 70 70 71 71 72 72 73 73 74 74 75 75 76 76 77 78 78 79 80 80 81 82 82 83 84 84 85 85 85 86 87 88 90 91 91 92 92 93 94 95 95 96 96 95 95 94 94 93 92 91 90 90 89 88 87 87 86 85 84 83 82 81 81 80 79 79 78 78 78 78 78 78 79 79 80 80 80 80 80 80 79 77 75 74
67 68 68 69 69 70 70 71 71 72 72 73 74 74 75 75 76 77 77 78 79 80 80 81 82 82 83 83 84 84 85 86 86 88 89 90 91 92 92 93 94 95 96 96 96 96 96 95 94 93 92 91 91 90 89 88 88 87 86 85 84 83 82 82 81 80 79 78 78 78 77 77 77 77 78 78 78 79 79 79 80 80 79 78 77 75
66 66 67 67 68 68 69 69 70 70 71 72 72 73 74 75 75 76 77 77 78 79 80 80 81 82 82 83 83 84 84 85 86 87 88 90 91 91 92 93 94 95 96 97 97 97 96 96 95 94 93 92 91 90 89 88 88 87 86 85 84 83 82 81 80 80 79 78 77 77 76 76 76 76 76 77 77 77 78 78 78 79 79 79 78 76
64 65 65 66 66 67 67 68 69 69 70 70 71 72 73 74 75 75 76 77 78 78 79 80 81 81 82 82 83 83 84 84 85 86 88 89 90 91 92 93 94 95 96 97 97 97 97 96 95 94 93 92 91 90 89 88 87 87 86 85 84 83 82 81 80 79 78 77 77 76 76 75 75 75 75 75 76 76 77 77 77 78 78 78 78 77
63 63 64 64 65 65 66 67 68 68 69 69 70 71 72 73 74 75 75 76 77 78 79 80 80 81 82 82 82 83 83 84 84 85 87 88 90 91 92 92 93 94 96 97 97 97 97 97 96 94 93 92 90 89 88 88 87 86 85 85 84 83 82 81 80 79 78 77 76 76 75 75 74 74 74 75 75 75 75 76 76 77 77 78 78 78
61 62 63 63 64 64 65 66 67 67 68 69 70 70 71 72 73 74 75 75 76 77 78 79 80 81 82 82 83 83 83 83 84 85 86 87 89 90 91 91 93 94 95 96 97 97 97 97 96 95 93 92 90 89 88 87 86 85 85 84 83 82 81 80 79 78 77 76 76 75 74 74 74 74 74 74 74 74 75 75 76 76 77 77 78 78
60 61 62 62 63 64 64 65 66 67 67 68 69 70 71 71 72 73 74 75 76 77 78 79 80 81 82 82 83 83 83 83 83 84 85 87 88 89 90 91 92 93 95 96 97 97 97 97 96 95 93 92 90 88 87 86 85 84 84 83 82 81 80 79 79 78 77 76 75 75 74 74 73 73 73 73 74 74 74 75 75 75 76 77 77 78
59 60 61 62 62 63 64 65 65 66 67 68 68 69 70 71 72 73 73 74 75 76 77 78 79 81 82 82 82 83 83 83 83 84 85 86 88 89 90 91 92 93 94 96 96 97 97 97 96 95 93 91 90 88 86 85 84 83 83 82 81 81 80 79 78 78 77 76 75 75 74 74 74 73 73 73 73 74 74 74 75 75 76 77 77 78
59 59 60 61 62 62 63 64 65 65 66 67 68 69 69 70 71 72 73 74 75 75 76 77 79 80 81 82 82 83 83 83 83 84 85 86 87 89 90 91 92 93 94 95 96 96 97 97 96 95 93 91 89 87 85 84 83 82 82 81 81 80 79 79 78 77 77 76 76 75 75 75 74 74 74 74 74 74 74 74 75 75 76 77 78 78
58 59 59 60 61 62 62 63 64 65 65 66 67 68 69 69 70 71 72 73 74 75 75 77 78 79 81 82 83 83 83 83 84 85 85 86 87 89 90 91 92 92 93 94 95 96 96 96 96 94 93 91 89 87 85 84 82 82 81 81 80 80 79 78 78 77 77 77 76 76 76 76 75 75 75 75 74 74 74 74 75 75 76 77 78 79
57 58 59 59 60 61 62 62 63 64 65 66 67 67 68 69 69 71 72 73 74 74 75 77 78 79 80 81 83 83 84 84 85 85 86 86 88 89 90 91 92 92 93 94 95 96 96 96 96 95 93 92 89 87 85 83 82 81 80 80 80 79 79 79 78 78 77 77 77 77 77 76 76 76 76 76 75 75 75 75 75 75 76 77 78 79
56 57 58 59 59 60 61 62 63 63 64 65 66 67 68 69 69 70 72 73 74 74 76 77 78 79 80 81 82 84 84 85 85 85 86 87 88 90 91 91 92 93 93 94 95 96 96 96 95 95 93 92 90 87 85 83 81 81 80 80 79 79 79 79 79 78 78 78 78 77 77 77 77 77 77 77 76 76 75 75 75 75 76 76 77 78
56 56 57 58 59 60 61 61 62 63 64 65 66 67 68 69 70 71 72 73 74 75 76 77 78 79 80 81 82 83 85 85 86 86 86 87 88 90 91 92 93 94 94 94 95 95 96 96 95 94 93 92 90 88 86 83 82 81 80 79 79 79 79 79 80 79 79 79 79 78 78 78 78 78 78 78 77 77 76 76 75 76 76 76 77 78
55 56 57 58 59 60 60 61 62 63 64 65 66 67 68 69 70 71 72 73 74 75 76 77 78 79 80 81 82 83 85 85 86 86 86 87 89 90 91 92 93 94 94 94 95 95 95 96 95 94 93 92 90 88 86 84 83 81 80 80 79 80 80 80 80 81 81 80 80 79 79 79 79 79 79 78 78 77 77 76 76 76 76 76 77 78
55 56 57 58 59 60 60 61 62 63 64 65 67 68 69 70 71 72 73 74 75 76 77 78 79 80 81 81 82 83 85 86 86 87 87 88 89 90 92 92 94 94 95 95 95 95 95 95 95 94 93 92 90 89 87 85 83 82 81 80 80 80 80 80 81 82 82 82 81 81 80 80 79 79 79 79 78 78 78 77 76 76 76 76 77 78
55 56 57 58 59 60 61 62 63 64 65 66 67 68 69 71 72 73 74 74 75 76 77 78 79 80 81 82 83 84 85 86 86 87 87 88 89 91 92 93 94 94 95 95 95 95 95 94 94 93 92 91 90 89 87 86 84 83 82 81 81 80 80 81 81 82 83 83 83 82 81 80 80 80 79 79 79 78 78 77 77 76 76 76 77 78
56 57 58 58 59 60 61 62 63 64 65 66 68 69 70 71 72 73 74 75 76 77 78 78 79 80 81 82 83 84 85 86 87 87 88 88 90 91 92 93 94 94 95 95 95 95 95 94 93 92 92 91 90 89 87 86 85 84 84 83 82 81 81 81 82 82 83 84 84 83 82 81 81 80 79 79 79 78 78 77 77 76 76 76 76 77
56 57 58 59 60 61 61 62 63 65 66 67 68 69 71 72 73 74 75 76 77 78 78 79 80 80 81 82 83 84 86 87 87 88 88 89 90 91 92 93 94 94 95 95 95 95 94 94 93 92 91 91 90 89 88 87 86 86 85 84 83 83 82 82 82 82 83 84 84 84 83 82 81 80 79 79 78 78 77 77 76 76 76 75 76 76
57 58 58 59 60 61 62 63 64 65 66 68 69 70 71 72 74 75 76 77 77 78 79 80 80 81 81 82 83 84 85 86 87 88 88 89 90 91 92 93 94 94 94 95 95 94 94 93 93 92 91 91 91 90 89 88 88 88 87 86 85 84 83 82 82 82 83 83 84 84 84 83 82 81 80 79 78 77 76 76 75 75 75 75 75 75
57 58 59 59 60 61 62 63 65 66 67 68 70 71 72 73 75 75 76 77 78 79 80 81 81 82 82 83 83 84 85 86 87 88 89 89 90 91 92 93 94 94 94 94 94 94 93 93 92 92 91 91 91 90 90 89 89 89 89 88 87 86 85 84 83 82 82 83 83 83 83 83 82 81 79 78 77 76 75 75 74 74 74 74 73 74
57 58 59 60 61 62 63 64 66 67 68 69 71 72 73 74 75 76 77 78 78 79 80 81 82 83 84 84 84 85 85 86 87 88 89 90 91 91 92 93 94 94 94 94 94 93 93 93 92 92 91 91 91 91 91 90 90 90 90 90 89 88 86 85 84 83 82 82 82 82 81 81 81 80 79 77 76 75 74 73 73 72 72 72 72 72
58 59 60 61 62 63 64 65 67 68 69 70 71 73 74 75 76 77 77 78 79 80 81 82 83 84 85 85 86 86 87 87 88 89 89 90 91 92 92 93 94 94 94 94 94 93 93 93 92 92 91 91 92 92 92 91 91 91 91 91 90 89 88 86 85 83 82 81 80 80 79 79 79 78 77 76 75 73 73 72 71 71 70 70 70 71
59 60 61 62 63 64 65 66 68 69 70 71 72 73 74 75 76 77 78 79 80 80 81 82 84 85 86 86 87 87 88 88 89 89 90 91 92 92 93 93 93 94 94 94 94 94 93 93 93 92 92 92 92 92 92 92 92 92 92 91 91 90 89 87 85 83 81 80 78 78 77 77 76 76 75 74 73 72 71 70 69 69 69 69 69 69
60 61 62 63 64 65 66 67 69 70 71 72 73 74 75 76 77 78 79 80 81 82 82 83 85 86 87 88 88 89 89 89 90 90 91 92 92 93 93 93 94 94 94 95 95 94 94 94 93 93 93 92 92 93 93 93 92 92 92 91 90 89 88 87 84 82 80 78 77 75 74 74 74 74 73 72 71 70 69 69 68 68 68 68 68 68
61 62 63 64 65 66 67 69 70 71 72 73 74 75 76 76 77 78 80 81 82 83 83 84 85 87 88 89 90 91 91 91 91 92 92 93 93 93 94 94 94 95 95 95 95 95 95 94 94 94 93 93 93 93 93 93 93 92 91 90 89 88 87 85 83 81 79 77 75 73 72 71 71 71 71 71 70 69 68 67 67 67 67 67 67 67
62 63 64 65 66 67 69 70 71 72 73 74 75 76 76 77 78 79 80 81 82 83 84 85 86 87 88 90 91 92 93 93 93 93 94 94 94 94 95 95 95 96 96 96 96 96 96 96 95 95 94 94 94 93 93 93 92 91 90 89 87 86 85 83 81 79 77 75 73 71 70 69 69 69 69 69 69 68 67 67 66 66 66 66 67 67
63 64 65 66 68 69 70 71 73 73 74 75 76 76 77 78 79 79 81 82 83 84 85 86 87 88 89 90 91 92 93 94 94 95 95 95 95 95 96 96 97 97 97 97 97 97 97 97 97 96 95 94 94 94 93 92 91 90 88 86 85 83 81 80 78 77 75 73 71 69 68 67 67 67 68 68 68 68 67 66 66 66 66 66 67 67
64 65 67 68 69 70 72 73 74 75 75 76 77 77 78 79 79 80 81 82 84 85 86 86 87 88 90 91 91 92 93 94 95 96 96 96 96 97 97 97 98 98 98 99 99 98 98 98 98 97 96 95 94 93 92 90 88 87 85 83 82 80 78 77 75 74 72 71 70 68 67 66 66 66 67 67 67 67 67 66 66 66 66 66 67 67
65 67 68 69 71 72 73 74 75 76 77 77 78 78 79 79 80 81 82 83 84 85 86 87 88 89 90 91 92 92 93 94 95 96 96 97 97 97 98 98 99 99 99 100 100 100 100 99 98 97 96 94 93 91 89 87 85 84 82 80 78 77 75 74 73 71 70 69 68 67 66 65 65 65 66 67 67 67 66 66 65 65 65 66 66 67
67 68 69 71 72 73 74 75 76 77 78 78 79 79 80 80 81 82 83 84 85 86 87 88 89 90 90 91 92 93 93 94 95 96 96 97 97 98 98 99 100 100 100 101 101 101 100 100 98 97 95 93 91 88 86 84 82 80 78 76 75 73 72 71 70 69 69 68 67 66 66 65 65 65 65 66 66 66 66 65 64 64 64 65 65 66
68 69 71 72 73 75 76 76 77 78 79 79 80 80 81 81 82 82 84 84 85 86 87 88 89 90 91 92 93 93 94 95 95 96 96 97 97 98 99 99 100 100 101 101 101 101 100 99 98 96 93 90 88 85 82 80 78 76 74 73 71 70 69 69 68 68 68 67 67 66 65 65 64 64 64 64 65 65 65 64 63 62 62 63 64 64
69 71 72 73 74 76 77 77 78 79 79 80 80 81 82 82 83 83 84 85 86 87 88 89 90 91 92 93 93 94 95 95 96 96 96 97 98 98 99 99 100 100 100 100 100 100 99 98 97 94 91 88 85 81 78 76 74 72 71 70 68 68 67 67 67 67 67 67 66 66 65 64 63 63 62 62 63 63 63 62 61 60 60 61 62 62
70 72 73 74 76 77 78 78 79 79 80 81 81 82 82 83 84 84 85 86 86 87 88 89 90 91 92 93 94 95 95 96 96 97 97 97 98 99 99 99 99 99 99 99 98 97 96 95 94 92 89 86 82 78 75 72 70 69 68 67 66 66 65 66 66 66 66 66 66 65 64 63 62 61 60 60 61 61 61 60 59 59 58 59 60 61
Wind_Direction
268 268 268 268 268 268 268 268 268 268 269 269 269 269 270 270 270 271 271 272 272 273 273 273 274 274 274 274 274 274 274 275 275 275 275 275 276 276 276 276 276 276 276 277 277 277 277 277 277 277 277 277 277 276 276 276 277 277 277 277 277 277 277 277 277 277 277 277 277 277 277 277 277 277 277 276 276 276 276 277 277 276 276 276 276 276
268 268 268 268 268 268 268 268 268 268 268 269 269 269 270 270 270 271 271 271 272 272 272 273 273 273 274 274 274 274 274 275 275 275 275 276 276 276 276 276 276 276 277 277 277 277 277 277 277 277 277 277 277 277 277 277 277 277 277 277 277 277 277 277 277 277 277 277 277 277 277 277 277 277 277 277 277 276 276 276 276 276 276 276 275 275
267 267 267 267 268 268 268 268 268 268 268 269 269 269 269 270 270 270 271 271 271 272 272 272 273 273 273 274 274 274 274 275 275 275 275 276 276 276 276 276 276 276 277 277 277 277 277 277 277 277 277 277 277 277 277 277 277 277 278 278 278 278 278 278 278 278 278 278 278 278 278 278 278 278 278 277 277 277 277 276 276 276 275 275 275 274
267 267 267 267 267 268 268 268 268 268 269 269 269 269 270 270 270 270 271 271 271 271 272 272 272 273 273 273 273 274 274 274 275 275 275 275 276 276 276 276 276 276 276 276 276 277 277 277 277 277 277 277 277 277 277 278 278 278 278 278 278 278 278 278 279 279 279 279 279 279 278 278 278 278 278 278 277 277 277 277 276 276 275 275 274 274
267 267 267 267 267 267 268 268 268 268 269 269 269 269 270 270 270 270 271 271 271 271 272 272 272 272 273 273 273 273 274 274 274 274 275 275 275 275 275 276 276 276 276 276 276 276 276 277 277 277 277 277 277 277 278 278 278 278 278 278 278 279 279 279 279 279 279 279 279 279 279 279 279 278 278 278 278 277 277 277 276 276 275 275 274 274
266 266 267 267 267 267 268 268 268 268 269 269 269 269 270 270 270 271 271 271 271 272 272 272 272 272 272 273 273 273 273 274 274 274 274 274 275 275 275 275 275 276 276 276 276 276 276 277 277 277 277 277 277 278 278 278 278 278 278 278 279 279 279 279 279 279 279 279 279 279 279 279 279 279 278 278 278 277 277 277 276 276 275 275 274 274
266 266 266 267 267 267 267 268 268 268 269 269 269 270 270 270 270 271 271 271 271 272 272 272 272 272 272 272 273 273 273 273 273 274 274 274 274 275 275 275 275 275 275 276 276 276 276 276 277 277 277 277 277 277 278 278 278 278 278 278 279 279 279 279 279 279 279 279 279 279 279 279 279 278 278 278 278 277 277 276 276 275 275 275 274 274
265 266 266 266 266 267 267 267 268 268 268 269 269 270 270 270 271 271 271 271 272 272 272 272 272 272 272 272 273 273 273 273 273 274 274 274 274 274 275 275 275 275 275 276 276 276 276 276 277 277 277 277 277 277 278 278 278 278 278 278 279 279 279 279 279 279 279 279 279 279 279 279 278 278 278 278 277 277 276 276 276 275 275 274 274 274
265 265 265 266 266 266 267 267 268 268 268 269 269 270 270 270 271 271 271 271 271 272 272 272 272 272 272 272 273 273 273 273 273 274 274 274 274 275 275 275 275 275 276 276 276 276 276 276 277 277 277 277 277 277 277 278 278 278 278 278 279 279 279 279 279 279 279 279 279 279 279 278 278 278 277 277 277 276 276 276 275 275 275 274 274 273
264 265 265 265 266 266 267 267 268 268 268 269 269 270 270 270 270 271 271 271 271 271 272 272 272 272 272 272 273 273 273 273 274 274 274 274 275 275 275 275 276 276 276 276 276 276 277 277 277 277 277 277 277 277 277 278 278 278 278 278 279 279 279 279 279 279 279 279 279 279 279 279 278 278 277 277 276 276 276 275 275 275 274 274 274 273
264 264 265 265 266 266 266 267 267 268 268 269 269 269 270 270 270 270 271 271 271 271 271 272 272 272 272 273 273 273 273 274 274 274 274 275 275 275 276 276 276 276 276 277 277 277 277 277 277 277 277 277 278 278 278 278 278 278 278 279 279 279 279 279 280 280 280 280 279 279 279 279 278 278 278 277 277 276 276 275 275 274 274 274 273 273
264 264 264 265 265 266 266 267 267 267 268 268 269 269 270 270 270 270 270 271 271 271 271 271 272 272 273 273 273 274 274 274 274 274 275 275 275 276 276 276 276 276 277 277 277 277 277 277 277 277 278 278 278 278 278 279 279 279 279 279 279 280 280 280 280 280 280 280 280 279 279 279 278 278 278 277 277 276 276 275 275 274 273 273 273 272
263 264 264 265 265 265 266 266 267 267 267 268 268 269 269 270 270 270 271 271 271 271 272 272 272 272 273 273 274 274 274 275 275 275 275 275 276 276 276 276 276 276 277 277 277 277 277 277 277 277 277 278 278 278 278 279 279 279 280 280 280 280 280 280 280 280 280 280 280 280 279 279 278 278 277 277 276 276 276 275 275 274 273 273 272 272
263 264 264 264 265 265 266 266 266 267 267 268 268 268 269 269 270 270 271 271 272 272 272 272 273 273 273 274 274 274 275 275 275 276 276 276 276 276 276 277 277 277 277 277 277 277 277 277 277 277 278 278 278 278 278 279 279 279 279 279 280 280 280 280 280 280 280 280 280 280 279 279 279 278 277 277 276 275 275 275 274 274 273 273 272 271
263 264 264 264 265 265 265 266 266 267 267 268 268 269 269 270 270 270 271 271 272 272 273 273 273 273 274 274 274 275 275 276 276 276 277 277 277 277 277 277 277 277 277 277 277 278 278 278 278 278 278 278 279 279 279 279 279 279 279 279 279 279 280 280 280 280 280 280 280 280 280 279 279 279 278 277 276 275 275 274 273 273 273 272 272 271
263 264 264 264 265 265 266 266 267 267 267 268 268 269 269 270 270 271 271 272 272 272 273 273 274 274 274 274 275 275 276 276 277 277 277 277 277 277 278 278 278 278 278 278 278 278 278 278 279 279 279 279 279 280 280 280 280 280 280 280 280 280 280 280 280 280 279 279 279 279 279 279 279 279 279 278 277 276 275 274 273 272 272 271 271 271
264 264 264 265 265 266 266 267 267 267 268 268 269 269 270 270 271 271 271 272 272 273 273 274 274 274 275 275 275 275 276 276 277 277 277 278 278 278 278 278 278 279 278 279 279 279 279 279 279 279 280 280 280 280 281 281 281 281 281 281 281 281 281 280 280 280 280 279 279 279 279 279 279 278 278 278 278 277 277 276 274 273 272 271 271 270
264 264 265 265 266 266 266 267 267 268 268 269 269 270 270 271 271 271 272 272 273 273 273 274 274 275 275 275 276 276 276 276 277 277 277 278 278 278 278 278 279 279 279 279 279 279 279 279 280 280 280 280 281 281 281 281 282 282 282 282 282 281 281 281 281 281 280 280 279 279 279 278 278 278 278 278 277 277 277 277 276 275 273 272 271 270
264 265 265 266 266 266 267 267 268 268 269 269 270 270 271 271 271 272 272 272 273 273 274 274 274 275 275 276 276 276 276 277 277 277 278 278 278 278 279 279 279 279 279 279 280 280 280 280 280 280 281 281 281 282 282 282 282 282 282 282 282 282 282 282 281 281 281 280 280 279 278 278 278 277 277 277 276 276 276 276 276 275 275 273 272 271
265 265 265 266 266 267 267 268 268 269 269 270 270 270 271 271 272 272 272 273 273 273 274 274 274 275 275 275 276 276 276 277 277 278 278 278 279 279 279 279 280 280 280 280 280 280 280 280 281 281 281 281 282 282 283 283 283 283 283 283 283 283 283 282 282 281 281 280 280 279 278 278 277 276 276 276 275 275 275 275 275 275 275 274 273 272
265 265 266 266 267 267 268 268 269 269 270 270 270 271 271 271 272 272 272 273 273 273 274 274 274 275 275 275 276 276 276 277 277 278 278 279 279 279 279 280 280 280 280 280 281 281 281 281 281 281 282 282 282 283 283 283 283 284 284 284 283 283 283 283 282 282 281 280 280 279 278 277 276 276 275 275 274 274 274 274 274 274 274 274 274 273
265 266 266 267 267 268 268 268 269 269 270 270 270 271 271 271 272 272 272 273 273 274 274 274 274 275 275 275 275 276 276 277 277 278 278 279 279 279 279 280 280 280 281 281 281 281 281 281 282 282 282 282 283 283 283 284 284 284 284 284 284 284 283 283 282 282 281 280 279 279 278 277 276 275 274 274 273 273 273 273 273 273 273 273 273 273
265 266 266 267 267 268 268 269 269 269 270 270 270 271 271 271 272 272 273 273 273 274 274 274 274 275 275 275 275 276 276 277 277 278 278 278 279 279 279 280 280 280 281 281 281 282 282 282 282 282 283 283 283 283 284 284 284 284 284 284 284 284 284 283 283 282 281 280 279 278 278 277 276 275 274 273 273 272 272 271 271 271 271 271 271 271
265 266 266 267 267 268 268 268 269 269 270 270 270 271 271 272 272 272 273 273 274 274 274 275 275 275 275 276 276 276 276 277 277 278 278 278 279 279 279 280 280 281 281 281 281 282 282 282 283 283 283 283 284 284 284 284 285 285 285 285 285 284 284 283 283 282 281 280 279 278 277 276 275 274 274 273 272 271 271 270 270 270 270 270 270 270
265 266 266 267 267 268 268 268 269 269 270 270 270 271 271 272 272 273 273 274 274 274 275 275 276 276 276 276 276 277 277 277 278 278 278 279 279 279 280 280 280 281 281 281 282 282 282 283 283 283 283 284 284 284 284 285 285 285 285 285 285 285 284 284 283 282 281 281 280 279 278 276 275 274 273 272 272 271 270 270 269 269 269 269 268 268
265 266 266 267 267 268 268 269 269 270 270 271 271 271 272 272 273 273 274 274 274 275 275 276 276 276 277 277 277 277 278 278 278 279 279 279 279 280 280 280 281 281 281 282 282 282 283 283 283 284 284 284 284 285 285 285 285 286 286 285 285 285 284 284 283 283 282 281 280 279 278 277 276 274 273 272 271 270 270 269 268 268 268 267 267 267
265 266 266 267 267 268 269 269 270 270 271 271 272 272 273 273 274 274 274 275 275 275 276 276 277 277 278 278 278 278 278 279 279 279 280 280 280 280 281 281 281 282 282 282 283 283 283 284 284 284 285 285 285 285 286 286 286 286 286 286 285 285 285 284 283 283 282 281 280 279 278 277 276 275 274 272 271 270 269 268 268 267 267 266 266 266
266 266 267 267 268 269 269 270 271 271 272 272 273 273 274 274 275 275 275 276 276 276 277 277 278 278 278 279 279 279 279 280 280 280 280 281 281 281 281 282 282 282 283 283 283 284 284 284 285 285 285 286 286 286 286 287 287 287 286 286 286 285 285 284 283 283 282 281 280 279 278 278 276 275 274 273 272 270 269 268 267 266 266 265 265 264
266 267 268 268 269 270 270 271 272 272 273 273 274 274 274 275 276 276 276 277 277 277 278 278 278 279 279 279 280 280 280 280 281 281 281 282 282 282 282 282 282 283 283 283 284 284 285 285 285 286 286 287 287 287 287 287 287 287 287 286 286 285 285 284 283 283 282 281 280 279 279 278 277 276 275 273 272 271 270 268 267 266 265 264 263 263
267 268 269 269 270 271 271 272 272 273 273 274 274 275 275 276 276 276 277 277 278 278 278 278 278 279 279 280 280 281 281 281 281 281 282 282 282 282 282 283 283 283 283 284 284 285 285 285 286 286 287 287 288 288 288 288 288 287 287 287 286 286 285 285 284 283 282 281 280 280 279 278 277 276 275 274 272 271 270 268 267 266 265 264 263 262
268 269 270 270 271 272 272 273 273 274 274 274 275 275 276 276 276 277 277 277 278 278 278 278 279 279 279 280 280 281 281 281 281 282 282 282 282 283 283 283 283 283 284 284 284 285 285 286 286 287 287 288 288 289 289 289 288 288 288 287 287 286 286 285 284 283 282 281 281 280 279 278 277 276 275 274 273 271 270 269 267 266 265 263 262 261
269 270 270 271 272 272 273 273 274 274 275 275 276 276 276 277 277 277 277 278 278 278 278 279 279 279 280 280 280 281 281 281 282 282 282 283 283 283 283 283 284 284 284 284 284 285 285 286 286 287 288 288 289 289 289 289 289 288 288 287 287 286 286 285 285 284 283 282 281 280 279 278 277 276 275 274 273 272 270 269 268 266 265 263 262 261
270 271 271 272 273 273 274 274 275 275 276 276 276 277 277 277 277 278 278 278 278 279 279 279 280 280 280 280 280 281 281 281 282 282 283 283 283 283 283 283 284 284 284 284 285 285 285 286 286 287 288 288 289 289 289 289 289 289 288 288 287 287 286 286 285 285 284 283 282 281 279 278 277 276 275 274 273 272 271 269 268 266 265 263 262 260
271 272 272 273 273 274 275 275 276 276 277 277 277 278 278 278 278 278 279 279 279 279 279 280 280 280 281 281 281 281 281 282 282 282 283 283 283 283 283 283 284 284 284 285 285 285 286 286 287 287 288 289 289 289 290 290 289 289 289 288 288 287 287 286 286 285 285 284 283 281 280 279 278 277 276 274 273 272 271 269 268 266 265 263 262 260
272 273 273 274 275 275 276 276 277 277 278 278 278 279 279 279 279 279 279 279 280 280 280 280 280 281 281 281 282 282 282 282 282 283 283 283 283 283 283 284 284 284 284 285 285 286 286 287 288 288 289 289 290 290 290 290 290 290 289 289 288 288 287 287 286 286 285 284 283 282 281 280 278 277 276 275 273 272 271 269 268 266 265 263 261 260
273 274 275 275 276 277 277 278 278 279 279 279 279 280 280 280 280 280 280 280 281 281 281 281 281 281 281 282 282 282 282 283 283 283 283 283 283 284 284 284 284 284 285 285 286 286 287 287 288 289 289 290 290 291 291 291 291 291 290 290 289 288 288 287 286 286 285 285 284 283 282 280 279 278 276 275 273 272 271 269 268 266 265 263 261 260
275 275 276 277 277 278 279 279 279 280 280 280 280 281 281 281 281 281 281 281 281 282 282 282 282 282 282 282 282 282 282 283 283 283 283 284 284 284 284 284 284 285 285 286 286 287 287 288 289 289 290 290 291 291 291 292 292 291 291 290 290 289 288 287 287 286 286 285 284 283 282 281 279 278 276 275 274 272 271 269 268 266 265 263 261 259
276 277 278 278 279 280 280 280 281 281 281 281 281 282 282 282 282 282 282 283 283 283 283 283 283 283 283 283 283 283 283 283 283 283 284 284 284 284 284 284 285 285 286 286 287 287 288 288 289 290 291 291 292 292 292 292 292 292 292 291 291 290 289 288 287 287 286 285 284 283 282 281 280 278 277 275 274 272 271 269 268 266 264 263 261 259
278 279 279 280 280 281 281 281 282 282 282 282 283 283 283 283 283 283 284 284 284 284 285 285 285 285 284 284 284 284 284 284 284 284 284 284 284 285 285 285 286 286 286 287 287 288 289 289 290 291 291 292 292 292 293 293 293 293 292 292 291 291 290 289 288 287 286 285 284 283 282 281 280 278 277 275 274 272 270 269 267 266 264 262 260 259
280 280 281 281 282 282 283 283 283 283 283 284 284 284 284 284 285 285 285 285 285 286 286 286 286 286 286 285 285 285 285 285 285 285 285 285 285 285 286 286 286 287 287 288 288 289 290 290 291 291 292 292 293 293 293 293 293 293 293 292 292 291 290 289 288 287 286 285 284 283 282 280 279 278 277 275 273 272 270 269 267 265 263 262 260 258
281 282 282 283 283 283 284 284 284 284 285 285 285 285 286 286 286 286 286 287 287 287 287 287 287 287 287 286 286 286 286 286 286 286 286 286 286 286 287 287 287 288 288 289 290 290 291 291 292 292 293 293 293 294 294 294 293 293 293 293 292 292 291 290 289 288 286 285 284 283 281 280 279 277 276 275 273 272 270 268 267 265 263 261 260 258
283 283 284 284 285 285 285 285 285 286 286 286 286 287 287 287 287 288 288 288 288 288 288 289 289 289 288 288 288 287 287 287 287 287 287 287 287 287 288 288 289 289 290 290 291 291 292 292 293 293 293 294 294 294 294 294 294 294 293 293 292 292 291 290 289 288 287 285 284 282 281 279 278 277 275 274 273 271 270 268 266 265 263 261 259 258
284 285 285 286 286 286 286 287 287 287 287 287 287 287 287 288 288 289 289 289 289 289 290 290 290 290 290 289 289 289 289 288 288 288 288 288 289 289 289 290 290 291 291 292 292 293 293 293 294 294 294 294 295 295 295 294 294 294 293 293 292 292 291 290 289 288 286 285 283 282 280 279 278 276 275 274 272 271 269 268 266 265 263 261 259 257
286 286 287 287 287 287 288 288 288 288 288 288 288 288 288 289 289 289 290 290 290 290 290 290 290 290 290 290 290 290 290 289 289 289 289 290 290 290 291 291 292 292 293 293 293 294 294 294 295 295 295 295 295 295 295 295 295 294 294 293 292 292 291 290 289 287 286 285 283 282 280 278 277 276 275 273 272 271 269 268 266 265 263 261 259 258
287 288 288 288 288 288 288 288 288 288 288 288 289 289 289 289 290 290 290 290 290 290 290 290 290 290 290 290 290 290 290 290 290 290 291 291 291 292 292 293 293 294 294 294 294 295 295 295 295 296 296 296 296 296 296 295 295 294 294 293 292 291 290 289 288 287 286 284 283 281 280 278 277 276 275 274 272 271 269 268 266 265 263 261 260 258
288 288 289 289 289 289 289 289 289 289 289 289 289 289 290 290 290 290 291 291 291 291 290 290 290 290 290 290 290 290 290 291 291 291 292 292 293 293 293 294 294 295 295 295 296 296 296 296 296 296 296 296 296 296 296 295 295 294 293 293 292 291 290 289 287 286 285 284 283 281 280 279 277 276 275 274 273 271 270 268 267 265 263 261 260 258
289 289 289 289 289 289 289 289 289 289 289 290 290 290 290 291 291 291 291 291 291 291 291 291 290 290 290 290 290 291 291 291 291 292 292 293 294 294 294 295 295 296 296 296 296 297 297 297 297 297 297 297 296 296 296 295 295 294 293 292 291 290 289 288 287 286 285 284 283 281 280 279 278 277 275 274 273 272 270 268 267 265 263 261 260 258
290 290 290 290 290 290 290 290 290 290 290 290 290 291 291 291 291 291 291 291 291 291 291 291 291 291 291 291 291 291 291 291 292 292 293 294 294 295 295 296 296 296 297 297 297 297 297 297 297 297 297 297 296 296 296 295 295 294 293 292 291 290 289 288 287 286 285 284 283 282 281 280 278 277 276 275 273 272 270 268 267 265 263 261 259 257
290 290 290 290 290 290 290 290 290 290 290 291 291 291 291 291 292 292 292 292 292 292 292 292 292 292 292 292 292 292 292 292 292 293 293 294 295 295 296 296 297 297 297 298 298 298 298 298 297 297 297 297 296 296 296 295 294 293 292 291 290 289 288 287 286 286 285 284 283 282 281 280 279 277 276 275 273 272 270 269 267 265 263 261 259 257
290 290 290 290 290 290 290 290 290 291 291 291 292 292 292 292 292 292 292 292 293 293 293 293 293 293 292 292 292 293 293 293 293 294 294 295 296 296 297 297 297 298 298 298 298 298 298 298 298 297 297 297 296 296 295 295 294 293 292 291 290 289 288 287 287 286 285 285 284 283 282 281 279 278 276 275 273 272 270 268 266 264 262 260 258 257
290 290 290 290 290 290 290 291 291 291 292 292 292 293 293 293 293 293 293 293 293 293 293 293 293 293 293 293 293 294 294 294 294 295 295 296 296 297 297 298 298 298 299 299 299 299 299 298 298 298 297 297 296 296 295 294 294 293 292 291 290 289 288 288 287 287 286 285 284 283 282 281 279 278 276 274 273 271 270 268 266 264 262 260 258 256
Height
10570 10571 10571 10573 10573 10573 10573 10573 10573 10573 10572 10572 10572 10572 10571 10571 10571 10571 10571 10571 10571 10570 10570 10570 10570 10569 10569 10569 10569 10568 10568 10568 10568 10568 10567 10567 10567 10566 10566 10566 10566 10566 10566 10566 10566 10565 10565 10565 10565 10565 10565 10566 10566 10566 10566 10566 10567 10567 10568 10568 10568 10569 10569 10569 10569 10570 10570 10571 10571 10571 10572 10572 10573 10573 10573 10573 10574 10574 10574 10574 10574 10575 10575 10575 10575 10574
10563 10564 10564 10565 10566 10566 10565 10566 10567 10567 10566 10566 10566 10566 10566 10566 10565 10565 10565 10565 10565 10565 10564 10564 10564 10564 10563 10563 10563 10562 10562 10561 10561 10561 10561 10560 10560 10559 10559 10559 10559 10559 10559 10558 10558 10558 10558 10558 10558 10558 10558 10558 10558 10559 10559 10559 10559 10560 10561 10561 10561 10562 10562 10563 10563 10563 10563 10564 10564 10564 10565 10565 10566 10566 10566 10566 10567 10567 10568 10568 10568 10568 10568 10568 10568 10567
10557 10557 10558 10558 10559 10559 10559 10559 10560 10560 10560 10559 10559 10559 10559 10559 10559 10559 10559 10559 10559 10559 10559 10559 10558 10558 10557 10556 10556 10556 10555 10555 10554 10554 10554 10554 10553 10553 10553 10553 10552 10552 10551 10551 10551 10551 10551 10551 10551 10551 10551 10551 10551 10551 10552 10553 10553 10553 10553 10554 10554 10554 10555 10555 10556 10556 10556 10557 10557 10558 10558 10558 10558 10559 10559 10559 10559 10560 10561 10561 10561 10561 10561 10561 10561 10560
10551 10551 10551 10551 10552 10553 10552 10553 10553 10553 10554 10553 10553 10553 10553 10553 10553 10553 10553 10553 10553 10553 10553 10553 10553 10552 10551 10551 10550 10549 10549 10549 10548 10548 10548 10548 10547 10546 10546 10546 10545 10544 10544 10544 10544 10544 10544 10544 10544 10544 10544 10544 10544 10544 10545 10545 10546 10546 10546 10547 10547 10548 10548 10548 10548 10549 10549 10549 10550 10550 10551 10551 10551 10551 10552 10552 10552 10553 10553 10554 10554 10554 10553 10553 10553 10553
10544 10544 10544 10545 10546 10546 10546 10546 10547 10547 10547 10547 10547 10547 10547 10547 10547 10547 10547 10547 10548 10548 10548 10547 10547 10546 10545 10544 10544 10543 10543 10543 10542 10542 10541 10541 10540 10539 10539 10538 10538 10538 10537 10537 10537 10537 10536 10536 10536 10536 10537 10537 10538 10538 10538 10538 10539 10539 10539 10540 10540 10541 10541 10541 10541 10542 10542 10543 10543 10543 10543 10544 10544 10544 10544 10544 10544 10545 10545 10546 10546 10546 10546 10546 10545 10545
10538 10538 10539 10539 10539 10539 10539 10540 10541 10541 10541 10541 10541 10541 10541 10541 10541 10541 10541 10541 10541 10541 10541 10541 10541 10540 10539 10538 10538 10537 10537 10536 10536 10535 10534 10534 10533 10533 10532 10531 10531 10531 10530 10530 10530 10530 10529 10529 10529 10529 10529 10530 10530 10531 10531 10531 10532 10533 10533 10533 10533 10534 10534 10534 10534 10535 10535 10535 10536 10536 10536 10536 10536 10537 10537 10537 10537 10538 10538 10538 10538 10538 10538 10538 10538 10538
10532 10533 10533 10533 10533 10533 10534 10534 10534 10534 10534 10534 10534 10534 10534 10534 10534 10535 10534 10534 10534 10535 10534 10534 10534 10534 10533 10532 10531 10531 10530 10529 10529 10529 10528 10528 10526 10526 10525 10524 10524 10524 10524 10523 10523 10523 10523 10523 10523 10523 10523 10523 10523 10524 10524 10524 10525 10525 10526 10526 10526 10527 10527 10528 10528 10528 10528 10528 10528 10529 10529 10529 10529 10529 10529 10529 10529 10529 10529 10530 10530 10530 10530 10530 10530 10531
10526 10526 10527 10527 10528 10528 10528 10528 10528 10529 10529 10529 10529 10528 10528 10528 10529 10529 10529 10529 10528 10528 10528 10528 10528 10527 10526 10526 10524 10524 10523 10523 10523 10522 10521 10521 10520 10519 10518 10518 10518 10517 10517 10516 10516 10516 10516 10516 10516 10516 10516 10516 10516 10517 10517 10518 10518 10518 10519 10519 10519 10520 10520 10521 10521 10521 10521 10521 10521 10521 10522 10522 10522 10522 10522 10522 10522 10522 10522 10522 10522 10523 10523 10523 10523 10523
10521 10521 10521 10521 10522 10522 10523 10523 10523 10523 10523 10523 10523 10523 10523 10522 10522 10523 10523 10523 10522 10522 10521 10521 10521 10520 10519 10519 10518 10518 10516 10516 10516 10515 10514 10514 10513 10512 10511 10511 10511 10510 10510 10509 10509 10509 10509 10509 10509 10509 10509 10509 10509 10509 10510 10511 10511 10511 10512 10513 10513 10513 10513 10514 10514 10514 10514 10514 10514 10514 10514 10514 10514 10514 10514 10514 10514 10514 10514 10514 10514 10514 10514 10514 10515 10515
10515 10516 10516 10516 10516 10517 10517 10517 10517 10517 10518 10518 10517 10517 10516 10516 10516 10516 10516 10516 10516 10515 10515 10514 10514 10513 10513 10512 10511 10511 10510 10509 10509 10508 10508 10507 10506 10505 10504 10504 10503 10503 10503 10503 10503 10502 10502 10502 10501 10501 10501 10502 10502 10503 10503 10504 10504 10504 10505 10506 10506 10506 10507 10507 10507 10507 10507 10506 10506 10506 10506 10506 10506 10506 10506 10506 10506 10506 10506 10506 10506 10507 10507 10507 10507 10507
10510 10510 10511 10511 10511 10511 10512 10512 10511 10511 10511 10511 10511 10511 10511 10510 10509 10509 10509 10509 10509 10509 10509 10508 10508 10507 10506 10505 10504 10504 10503 10503 10503 10502 10501 10501 10499 10498 10498 10496 10496 10496 10495 10495 10494 10494 10494 10494 10494 10494 10494 10494 10495 10495 10496 10496 10497 10498 10498 10499 10499 10499 10500 10500 10500 10499 10499 10499 10499 10498 10498 10498 10498 10498 10498 10498 10498 10498 10498 10498 10499 10499 10499 10499 10499 10499
10504 10505 10505 10506 10506 10506 10506 10506 10506 10506 10506 10506 10506 10505 10504 10504 10503 10503 10503 10503 10503 10503 10503 10503 10502 10501 10501 10499 10498 10497 10497 10496 10496 10495 10494 10494 10493 10492 10491 10490 10489 10489 10488 10488 10487 10487 10486 10486 10486 10486 10487 10487 10488 10488 10488 10489 10489 10490 10491 10491 10492 10493 10493 10493 10493 10493 10492 10492 10491 10491 10490 10489 10489 10489 10489 10489 10489 10489 10489 10490 10490 10491 10491 10491 10491 10491
10499 10499 10500 10500 10500 10501 10501 10501 10501 10501 10500 10500 10500 10499 10499 10498 10498 10497 10497 10496 10496 10496 10496 10496 10496 10496 10495 10494 10492 10491 10490 10489 10488 10488 10488 10487 10486 10486 10484 10483 10482 10481 10481 10480 10479 10479 10479 10479 10479 10479 10479 10480 10481 10481 10482 10482 10483 10483 10484 10484 10484 10485 10485 10486 10486 10485 10485 10484 10484 10483 10482 10481 10481 10481 10481 10481 10481 10481 10481 10481 10481 10482 10483 10483 10484 10484
10494 10494 10494 10495 10495 10495 10495 10495 10495 10495 10494 10494 10494 10494 10493 10493 10492 10492 10491 10491 10490 10490 10489 10489 10489 10489 10489 10488 10487 10485 10484 10483 10481 10481 10480 10480 10479 10478 10477 10476 10474 10474 10473 10473 10472 10471 10471 10471 10471 10472 10473 10473 10473 10474 10474 10475 10476 10476 10477 10477 10478 10478 10478 10478 10478 10478 10478 10477 10476 10475 10474 10473 10473 10472 10472 10472 10473 10473 10473 10473 10473 10473 10474 10474 10475 10476
10489 10489 10489 10489 10489 10489 10489 10489 10489 10489 10489 10489 10488 10488 10488 10488 10487 10486 10486 10486 10484 10484 10484 10483 10483 10483 10483 10482 10481 10479 10478 10476 10474 10473 10473 10472 10472 10471 10470 10468 10466 10466 10465 10464 10464 10463 10463 10464 10464 10464 10464 10465 10466 10466 10467 10468 10468 10469 10469 10470 10470 10471 10471 10471 10471 10471 10471 10470 10469 10468 10466 10465 10464 10463 10463 10463 10463 10464 10464 10464 10465 10466 10466 10466 10467 10468
10484 10484 10484 10484 10484 10484 10484 10484 10484 10484 10484 10484 10483 10483 10483 10483 10482 10481 10481 10480 10479 10479 10478 10478 10477 10476 10476 10476 10476 10474 10472 10470 10468 10467 10465 10464 10464 10463 10463 10461 10458 10457 10457 10456 10455 10454 10455 10455 10456 10456 10456 10457 10458 10458 10459 10459 10460 10461 10461 10462 10462 10463 10463 10463 10463 10463 10463 10463 10462 10461 10459 10458 10456 10456 10454 10454 10454 10454 10454 10455 10456 10458 10458 10459 10459 10460
10479 10479 10479 10479 10479 10479 10479 10479 10479 10479 10479 10478 10478 10478 10478 10477 10476 10476 10476 10475 10474 10473 10473 10472 10471 10471 10470 10469 10469 10469 10467 10465 10463 10461 10459 10457 10456 10456 10455 10453 10451 10449 10448 10448 10448 10447 10447 10447 10448 10448 10449 10449 10449 10450 10451 10451 10451 10452 10453 10453 10454 10454 10454 10454 10455 10455 10455 10454 10454 10453 10452 10451 10449 10448 10447 10446 10445 10445 10445 10445 10446 10448 10449 10451 10451 10453
10474 10474 10474 10474 10474 10474 10474 10474 10474 10474 10474 10473 10473 10473 10473 10472 10471 10471 10470 10469 10469 10468 10467 10466 10466 10465 10464 10463 10463 10462 10461 10459 10457 10454 10453 10451 10449 10448 10448 10446 10444 10441 10440 10439 10439 10439 10439 10439 10439 10440 10441 10441 10442 10443 10443 10443 10443 10444 10444 10444 10445 10445 10446 10446 10446 10446 10446 10446 10446 10445 10444 10443 10442 10441 10439 10439 10438 10437 10436 10436 10437 10438 10439 10441 10443 10444
10469 10469 10469 10469 10469 10469 10469 10469 10469 10469 10469 10468 10468 10468 10467 10467 10466 10466 10465 10464 10463 10463 10461 10461 10460 10459 10459 10458 10456 10456 10455 10453 10451 10448 10446 10444 10442 10441 10441 10439 10436 10434 10432 10431 10431 10430 10431 10431 10431 10432 10433 10434 10434 10434 10435 10435 10435 10436 10436 10436 10436 10436 10437 10437 10438 10438 10438 10437 10437 10436 10436 10435 10434 10433 10433 10431 10431 10429 10429 10428 10428 10429 10430 10431 10434 10436
10464 10464 10464 10464 10464 10464 10464 10464 10464 10464 10464 10463 10463 10463 10462 10461 10461 10460 10459 10458 10458 10457 10456 10455 10454 10453 10453 10452 10451 10450 10449 10448 10445 10442 10440 10438 10436 10434 10434 10433 10429 10426 10424 10423 10422 10422 10422 10422 10423 10424 10425 10426 10426 10427 10427 10428 10428 10427 10427 10428 10428 10428 10428 10428 10429 10429 10429 10428 10428 10428 10428 10427 10426 10426 10425 10424 10423 10423 10422 10421 10421 10421 10421 10422 10424 10426
10459 10459 10459 10459 10459 10459 10459 10459 10459 10459 10459 10458 10458 10457 10456 10456 10455 10454 10454 10453 10452 10451 10450 10449 10448 10448 10447 10446 10445 10444 10443 10442 10439 10436 10434 10432 10429 10428 10427 10426 10423 10419 10417 10414 10414 10413 10413 10413 10414 10416 10417 10418 10419 10419 10419 10419 10419 10419 10419 10419 10419 10419 10419 10419 10419 10419 10419 10419 10419 10419 10419 10419 10418 10418 10417 10416 10416 10416 10415 10414 10414 10414 10414 10414 10415 10416
10455 10455 10454 10454 10455 10455 10454 10454 10454 10454 10454 10453 10453 10452 10451 10450 10449 10449 10448 10447 10446 10445 10444 10443 10443 10441 10441 10440 10439 10439 10438 10436 10434 10431 10429 10426 10423 10421 10421 10419 10416 10413 10410 10408 10406 10405 10405 10405 10406 10408 10409 10410 10411 10412 10412 10412 10412 10411 10411 10411 10411 10411 10411 10411 10411 10411 10411 10411 10411 10411 10410 10410 10410 10409 10409 10409 10408 10408 10408 10408 10408 10407 10407 10407 10407 10408
10451 10451 10450 10450 10450 10450 10450 10449 10449 10449 10449 10448 10448 10446 10446 10445 10444 10443 10442 10441 10441 10439 10438 10437 10436 10435 10434 10434 10433 10433 10433 10431 10429 10426 10424 10421 10418 10415 10414 10413 10411 10407 10403 10401 10399 10398 10397 10396 10398 10399 10401 10402 10403 10404 10404 10404 10404 10403 10403 10403 10402 10402 10402 10402 10402 10402 10402 10402 10402 10402 10401 10401 10401 10401 10401 10401 10401 10400 10400 10400 10400 10400 10400 10400 10400 10400
10446 10446 10446 10446 10446 10445 10445 10444 10444 10444 10443 10443 10442 10441 10441 10440 10439 10438 10437 10436 10435 10433 10432 10431 10429 10428 10428 10427 10427 10426 10426 10425 10423 10421 10418 10416 10412 10409 10408 10407 10404 10401 10397 10394 10393 10391 10389 10389 10389 10391 10393 10394 10395 10396 10397 10397 10396 10396 10395 10394 10394 10394 10393 10393 10393 10393 10393 10393 10393 10393 10393 10393 10393 10393 10393 10393 10393 10393 10393 10393 10393 10393 10393 10393 10393 10393
10441 10441 10441 10441 10441 10441 10440 10439 10439 10439 10438 10438 10437 10436 10435 10434 10434 10433 10431 10431 10429 10428 10426 10424 10423 10421 10420 10420 10419 10419 10419 10419 10418 10415 10413 10409 10406 10404 10402 10401 10399 10396 10391 10388 10386 10385 10383 10381 10381 10382 10384 10385 10387 10388 10389 10389 10389 10388 10387 10386 10386 10385 10385 10384 10384 10384 10384 10384 10384 10384 10384 10384 10384 10384 10384 10384 10384 10384 10384 10385 10385 10386 10386 10386 10386 10385
10437 10436 10436 10436 10436 10436 10435 10434 10434 10434 10433 10433 10432 10431 10430 10429 10428 10427 10426 10425 10424 10423 10421 10419 10417 10415 10414 10413 10412 10412 10411 10411 10411 10409 10406 10403 10400 10398 10396 10394 10393 10390 10386 10382 10380 10378 10376 10374 10374 10374 10376 10376 10378 10380 10381 10382 10381 10381 10379 10378 10378 10377 10376 10376 10376 10375 10375 10374 10374 10374 10374 10374 10375 10375 10375 10375 10376 10376 10376 10377 10378 10378 10378 10378 10378 10378
10433 10432 10432 10431 10431 10431 10430 10430 10429 10429 10428 10428 10426 10426 10424 10424 10423 10421 10421 10419 10418 10417 10416 10414 10411 10409 10408 10406 10405 10404 10404 10404 10403 10401 10399 10397 10394 10391 10388 10387 10386 10384 10380 10376 10374 10372 10370 10368 10367 10366 10368 10368 10369 10371 10373 10373 10373 10373 10371 10370 10369 10368 10368 10367 10367 10366 10366 10366 10366 10366 10366 10366 10366 10366 10366 10366 10367 10368 10368 10369 10369 10370 10370 10370 10370 10369
10428 10428 10427 10427 10426 10426 10426 10425 10424 10424 10423 10423 10421 10421 10419 10418 10417 10416 10414 10413 10413 10411 10409 10408 10406 10404 10402 10400 10398 10397 10397 10397 10396 10394 10393 10390 10388 10384 10381 10380 10379 10377 10374 10371 10368 10365 10363 10361 10360 10359 10359 10359 10361 10362 10364 10364 10365 10364 10363 10362 10361 10360 10359 10358 10358 10358 10357 10357 10357 10356 10356 10356 10356 10356 10357 10358 10358 10359 10359 10360 10361 10361 10362 10362 10362 10361
10423 10423 10423 10423 10422 10421 10421 10421 10420 10419 10418 10418 10416 10415 10414 10413 10412 10410 10408 10408 10406 10405 10403 10402 10401 10399 10396 10394 10392 10390 10390 10389 10389 10387 10386 10384 10381 10377 10374 10373 10371 10369 10368 10365 10362 10359 10357 10354 10353 10352 10351 10351 10352 10353 10354 10356 10356 10356 10355 10354 10353 10351 10351 10350 10349 10349 10348 10348 10348 10348 10348 10347 10347 10347 10348 10348 10349 10349 10350 10351 10352 10353 10353 10353 10353 10353
10419 10419 10418 10418 10418 10417 10416 10416 10415 10414 10413 10412 10411 10410 10409 10408 10406 10405 10403 10402 10401 10399 10398 10396 10394 10393 10391 10389 10386 10384 10383 10382 10381 10381 10379 10377 10373 10370 10368 10366 10364 10362 10361 10359 10356 10353 10350 10348 10346 10345 10344 10343 10343 10344 10346 10347 10348 10348 10346 10346 10344 10343 10342 10341 10340 10339 10339 10339 10339 10339 10338 10338 10338 10338 10338 10338 10339 10340 10341 10342 10343 10344 10344 10344 10344 10344
10415 10414 10414 10414 10413 10413 10412 10411 10410 10409 10408 10407 10406 10405 10404 10403 10401 10399 10398 10397 10395 10394 10392 10390 10388 10387 10386 10384 10381 10379 10376 10374 10374 10374 10373 10371 10366 10363 10361 10359 10356 10353 10353 10353 10351 10348 10344 10341 10340 10339 10337 10336 10335 10336 10336 10338 10338 10338 10338 10338 10336 10335 10334 10333 10331 10330 10329 10329 10329 10329 10329 10329 10329 10328 10328 10329 10329 10330 10331 10333 10333 10334 10334 10335 10335 10335
10411 10411 10410 10409 10409 10408 10407 10406 10405 10404 10403 10402 10401 10399 10398 10397 10396 10394 10393 10391 10389 10388 10386 10384 10383 10381 10379 10378 10376 10373 10370 10368 10368 10367 10366 10364 10360 10356 10354 10353 10349 10346 10344 10344 10344 10342 10339 10336 10334 10332 10331 10329 10328 10328 10328 10329 10329 10329 10329 10329 10328 10327 10326 10324 10323 10321 10320 10319 10319 10319 10319 10319 10319 10319 10319 10319 10319 10320 10321 10323 10324 10324 10325 10325 10325 10325
10406 10406 10406 10405 10404 10403 10403 10401 10401 10399 10398 10397 10396 10394 10393 10391 10390 10389 10387 10386 10384 10383 10381 10379 10377 10375 10373 10372 10369 10367 10364 10363 10361 10360 10359 10358 10354 10350 10348 10346 10343 10339 10337 10336 10334 10334 10333 10330 10328 10326 10325 10323 10321 10320 10320 10320 10320 10320 10320 10320 10319 10318 10318 10316 10314 10312 10310 10309 10309 10309 10309 10309 10309 10309 10309 10309 10309 10310 10311 10312 10313 10314 10315 10316 10316 10316
10403 10402 10401 10400 10399 10399 10398 10397 10396 10394 10393 10392 10390 10389 10387 10386 10384 10383 10381 10379 10378 10376 10375 10373 10371 10369 10368 10365 10363 10360 10358 10356 10355 10354 10353 10351 10348 10344 10341 10338 10336 10333 10330 10328 10326 10325 10324 10323 10321 10320 10319 10317 10315 10314 10313 10312 10311 10311 10311 10311 10310 10309 10309 10308 10306 10303 10301 10299 10299 10298 10298 10299 10299 10299 10299 10299 10299 10300 10301 10302 10303 10304 10305 10306 10306 10306
10398 10398 10397 10396 10395 10394 10393 10392 10391 10389 10388 10386 10385 10383 10381 10379 10378 10376 10374 10373 10371 10370 10368 10367 10366 10364 10362 10359 10357 10354 10351 10349 10348 10347 10346 10344 10341 10337 10334 10331 10329 10326 10324 10321 10319 10318 10317 10315 10314 10313 10312 10310 10308 10306 10305 10304 10303 10302 10301 10301 10301 10300 10300 10299 10298 10295 10293 10290 10288 10288 10287 10288 10288 10288 10289 10289 10289 10289 10290 10291 10292 10293 10294 10295 10296 10296
10394 10393 10392 10391 10391 10389 10388 10387 10386 10384 10383 10381 10379 10378 10376 10374 10372 10370 10368 10366 10365 10363 10361 10360 10359 10358 10356 10354 10351 10348 10344 10342 10340 10339 10338 10336 10333 10330 10327 10323 10321 10319 10318 10314 10313 10311 10310 10308 10307 10306 10304 10303 10301 10298 10297 10296 10294 10293 10291 10291 10290 10290 10290 10290 10289 10287 10284 10281 10279 10278 10276 10276 10276 10277 10278 10278 10279 10279 10280 10281 10281 10283 10284 10284 10286 10286
10389 10388 10388 10387 10386 10385 10383 10382 10381 10379 10377 10375 10373 10371 10369 10368 10366 10364 10362 10360 10358 10356 10354 10353 10351 10350 10349 10348 10346 10343 10340 10337 10334 10332 10330 10328 10326 10323 10320 10316 10313 10312 10310 10308 10306 10304 10303 10302 10300 10299 10297 10296 10293 10291 10289 10288 10286 10284 10282 10280 10279 10279 10279 10279 10279 10278 10276 10273 10271 10268 10266 10266 10265 10266 10266 10268 10268 10269 10269 10270 10271 10272 10273 10274 10275 10276
10384 10384 10383 10382 10381 10380 10378 10376 10375 10373 10372 10369 10368 10366 10363 10361 10359 10358 10356 10354 10352 10350 10348 10345 10343 10341 10340 10339 10338 10336 10334 10331 10328 10326 10323 10321 10318 10316 10313 10309 10306 10304 10303 10301 10299 10298 10296 10295 10293 10292 10290 10288 10286 10284 10281 10279 10278 10275 10273 10270 10269 10268 10268 10269 10268 10268 10266 10264 10262 10259 10258 10256 10255 10255 10255 10256 10258 10258 10259 10260 10261 10262 10263 10264 10264 10266
10380 10379 10378 10377 10376 10374 10373 10371 10369 10368 10366 10364 10362 10359 10358 10355 10353 10351 10349 10347 10345 10343 10341 10338 10335 10333 10331 10329 10328 10327 10325 10323 10321 10318 10316 10313 10311 10308 10306 10303 10299 10297 10295 10293 10292 10290 10289 10288 10286 10285 10283 10281 10279 10276 10274 10271 10269 10267 10264 10261 10259 10258 10257 10258 10258 10257 10256 10254 10253 10251 10248 10246 10245 10244 10244 10246 10247 10248 10249 10249 10251 10251 10253 10253 10254 10256
10375 10374 10373 10372 10371 10369 10368 10366 10364 10362 10360 10358 10356 10354 10351 10349 10347 10344 10343 10341 10339 10336 10334 10331 10328 10325 10323 10321 10319 10318 10316 10314 10313 10310 10308 10305 10303 10300 10298 10296 10293 10290 10288 10286 10284 10283 10281 10280 10279 10278 10276 10274 10271 10268 10266 10263 10261 10258 10256 10253 10249 10247 10246 10246 10246 10246 10245 10244 10243 10241 10239 10237 10235 10234 10234 10235 10236 10238 10238 10239 10241 10241 10243 10244 10244 10246
10370 10369 10368 10366 10365 10364 10362 10360 10358 10356 10354 10352 10350 10348 10346 10343 10341 10338 10336 10334 10331 10329 10327 10324 10321 10318 10314 10313 10311 10309 10308 10306 10304 10301 10299 10297 10294 10292 10290 10288 10285 10283 10280 10278 10276 10274 10273 10271 10270 10269 10268 10266 10264 10261 10258 10254 10252 10249 10247 10244 10241 10238 10236 10235 10235 10234 10234 10234 10233 10231 10230 10228 10226 10225 10224 10225 10226 10227 10229 10229 10231 10232 10233 10234 10235 10236
10365 10364 10362 10361 10359 10358 10356 10354 10352 10350 10348 10346 10344 10342 10339 10337 10335 10332 10329 10327 10324 10322 10319 10317 10314 10310 10306 10303 10301 10299 10298 10296 10295 10293 10291 10288 10286 10284 10281 10279 10277 10275 10273 10270 10268 10266 10264 10263 10261 10260 10258 10257 10255 10253 10249 10246 10243 10240 10238 10234 10232 10229 10226 10225 10224 10224 10223 10223 10223 10222 10221 10219 10217 10216 10215 10215 10216 10218 10219 10220 10221 10223 10223 10224 10226 10227
10360 10358 10357 10355 10353 10351 10349 10348 10346 10344 10342 10340 10338 10336 10334 10332 10329 10326 10324 10321 10318 10315 10313 10309 10307 10303 10300 10296 10293 10289 10288 10286 10285 10284 10282 10279 10278 10275 10273 10271 10269 10266 10264 10262 10259 10257 10255 10254 10253 10251 10249 10248 10246 10244 10241 10237 10234 10231 10228 10225 10223 10220 10218 10215 10214 10213 10213 10213 10212 10212 10211 10210 10208 10207 10206 10206 10207 10208 10209 10211 10213 10213 10214 10215 10216 10218
10354 10353 10351 10349 10347 10345 10343 10341 10339 10338 10336 10334 10332 10330 10328 10326 10324 10321 10318 10315 10312 10309 10306 10303 10300 10297 10294 10290 10286 10283 10279 10276 10275 10274 10272 10271 10269 10267 10264 10263 10260 10258 10256 10253 10251 10248 10246 10244 10243 10241 10240 10238 10236 10234 10231 10228 10225 10221 10218 10216 10213 10211 10208 10206 10204 10203 10203 10202 10202 10202 10202 10201 10200 10198 10198 10197 10198 10199 10201 10202 10203 10204 10205 10206 10208 10209
10349 10347 10345 10343 10341 10339 10337 10335 10333 10331 10329 10328 10326 10324 10322 10320 10318 10315 10312 10309 10306 10303 10299 10297 10294 10291 10287 10284 10281 10278 10273 10270 10267 10265 10263 10261 10260 10258 10256 10254 10251 10249 10246 10244 10242 10239 10237 10234 10233 10231 10230 10229 10226 10224 10221 10219 10216 10213 10209 10206 10204 10202 10199 10198 10196 10194 10193 10193 10192 10193 10193 10193 10191 10190 10189 10188 10189 10190 10191 10193 10194 10195 10196 10197 10198 10199
10343 10341 10339 10338 10336 10333 10331 10329 10327 10325 10323 10321 10319 10318 10316 10314 10311 10309 10306 10303 10299 10296 10293 10290 10288 10285 10281 10278 10274 10271 10268 10264 10261 10258 10256 10254 10252 10250 10248 10246 10243 10240 10238 10234 10232 10229 10227 10225 10223 10221 10221 10219 10217 10214 10212 10209 10206 10203 10200 10197 10195 10193 10190 10188 10187 10186 10184 10184 10183 10183 10183 10183 10183 10182 10181 10180 10180 10181 10183 10184 10186 10186 10187 10188 10189 10190
10338 10336 10333 10331 10329 10327 10325 10323 10321 10319 10317 10314 10313 10311 10309 10308 10305 10302 10299 10296 10294 10290 10287 10284 10281 10278 10275 10272 10269 10266 10263 10259 10256 10253 10250 10248 10244 10242 10240 10238 10234 10232 10229 10226 10223 10219 10217 10214 10213 10212 10211 10209 10208 10205 10203 10200 10197 10194 10191 10188 10186 10184 10181 10179 10178 10177 10176 10175 10174 10174 10174 10174 10174 10173 10172 10171 10171 10172 10173 10175 10176 10178 10178 10178 10179 10181
10332 10330 10328 10326 10323 10321 10319 10317 10315 10313 10311 10308 10306 10304 10303 10301 10299 10296 10293 10289 10286 10284 10281 10277 10274 10271 10268 10265 10262 10259 10257 10254 10251 10248 10244 10242 10239 10236 10233 10230 10227 10224 10220 10217 10214 10210 10207 10204 10202 10201 10201 10200 10199 10196 10194 10191 10188 10185 10183 10180 10178 10176 10173 10171 10169 10168 10168 10167 10166 10166 10166 10166 10166 10165 10164 10163 10162 10163 10164 10166 10168 10169 10169 10169 10170 10171
10327 10324 10322 10320 10318 10315 10313 10311 10309 10307 10304 10303 10300 10298 10296 10294 10292 10289 10286 10283 10279 10276 10274 10270 10267 10264 10260 10258 10254 10252 10249 10247 10244 10241 10239 10236 10233 10230 10227 10223 10220 10216 10213 10209 10205 10201 10198 10194 10191 10189 10189 10190 10189 10188 10186 10183 10180 10177 10174 10172 10170 10168 10166 10163 10161 10160 10159 10158 10158 10158 10158 10158 10158 10157 10156 10154 10154 10153 10154 10156 10158 10160 10161 10161 10161 10162
10322 10319 10317 10314 10312 10309 10307 10304 10303 10301 10298 10296 10294 10291 10289 10286 10284 10282 10279 10276 10273 10270 10267 10264 10261 10257 10254 10250 10247 10244 10242 10239 10237 10234 10232 10229 10227 10224 10220 10216 10213 10209 10205 10201 10197 10193 10189 10184 10181 10179 10178 10179 10179 10179 10178 10175 10173 10169 10166 10164 10162 10160 10158 10156 10154 10153 10151 10150 10149 10149 10149 10149 10149 10149 10148 10147 10146 10145 10146 10148 10149 10151 10152 10153 10153 10153
10316 10314 10311 10309 10306 10304 10301 10299 10297 10294 10292 10290 10288 10285 10282 10279 10276 10274 10271 10269 10266 10263 10259 10256 10254 10251 10247 10243 10239 10236 10234 10231 10229 10227 10224 10221 10219 10216 10213 10209 10206 10202 10198 10194 10189 10185 10181 10176 10172 10168 10166 10167 10169 10169 10169 10167 10165 10162 10159 10156 10154 10153 10151 10149 10146 10144 10143 10142 10141 10141 10141 10141 10141 10141 10140 10139 10138 10137 10137 10139 10141 10143 10144 10144 10144 10145